Tracking 27079 objects as of 24-Mar-2023
HD Live streaming from Space Station
objects crossing your sky now

STARLINK-3709

Track STARLINK-3709 now!
10-day predictions
STARLINK-3709 is classified as:


NORAD ID: 52102
Int'l Code: 2022-029Q
Perigee: 546.1 km
Apogee: 547.7 km
Inclination: 53.2 °
Period: 95.4 minutes
Semi major axis: 6917 km
RCS: Unknown
Launch date: March 19, 2022
Source: United States (US)
Launch site: AIR FORCE EASTERN TEST RANGE (AFETR)
Your satellite tracking list
Your tracking list is empty




NASA's NSSDC Master Catalog

Two Line Element Set (TLE):
1 52102U 22029Q   23082.76503425  .00006938  00000-0  45349-3 0  9996
2 52102  53.2152 256.0698 0001154  81.9048 278.2075 15.08846135 57450
Source of the keplerian elements: AFSPC